SKYTERRA 1

Last updated on Wed Oct 29 2025 00:02:47 GMT+0000 (Coordinated Universal Time)

1 37218U 10061A 25301.50272750 -.00000106 00000+0 00000+0 0 9994 2 37218 4.6291 50.8416 0005212 188.7578 237.1860 1.00272213 54872
UTC large
Height (km)
Speed (km/s)
/
Latitude / Longitude
Inclination (degrees)
Orbital Period (minutes)
Azimuth
Elevation
Range (km)
Doppler Factor

Next 0 passes for location: London (51.5072 / 0.1276)

Sorry there are no passes over London.